Time,TemperatureF,DewpointF,PressureIn,WindDirection,WindDirectionDegrees,WindSpeedMPH,WindSpeedGustMPH,Humidity,HourlyPrecipIn,Conditions,Clouds,dailyrainin,SolarRadiationWatts/m^2,SoftwareType,DateUTC
2013-02-21 00:06:00,25.3,11.0,29.99,WNW,284,6.0,-999.0,54,-99.99,,,0.00,0,weatherlink.com 1.10,2013-02-21 05:06:00,
2013-02-21 00:21:00,25.2,11.0,29.98,West,269,8.0,-999.0,54,-99.99,,,0.00,0,weatherlink.com 1.10,2013-02-21 05:21:00,
2013-02-21 00:36:00,25.0,11.0,30.00,WNW,296,5.0,-999.0,55,-99.99,,,0.00,0,weatherlink.com 1.10,2013-02-21 05:36:00,
2013-02-21 00:51:00,24.8,11.0,29.99,West,265,6.0,-999.0,55,-99.99,,,0.00,0,weatherlink.com 1.10,2013-02-21 05:51:00,
2013-02-21 01:06:00,24.8,11.0,29.99,WNW,284,5.0,-999.0,56,-99.99,,,0.00,0,weatherlink.com 1.10,2013-02-21 06:06:00,
2013-02-21 01:22:00,24.6,11.0,29.99,West,267,7.0,-999.0,57,-99.99,,,0.00,0,weatherlink.com 1.10,2013-02-21 06:22:00,
2013-02-21 01:37:00,24.6,11.0,29.99,NW,310,4.0,-999.0,57,-99.99,,,0.00,0,weatherlink.com 1.10,2013-02-21 06:37:00,
2013-02-21 01:52:00,24.4,11.0,29.98,WNW,290,2.0,-999.0,58,-99.99,,,0.00,0,weatherlink.com 1.10,2013-02-21 06:52:00,
2013-02-21 02:07:00,24.2,12.0,29.99,WSW,257,3.0,-999.0,59,-99.99,,,0.00,0,weatherlink.com 1.10,2013-02-21 07:07:00,
2013-02-21 02:22:00,24.0,11.0,29.98,SW,234,3.0,-999.0,59,-99.99,,,0.00,0,weatherlink.com 1.10,2013-02-21 07:22:00,
2013-02-21 02:37:00,23.8,12.0,29.99,WSW,237,2.0,-999.0,60,-99.99,,,0.00,0,weatherlink.com 1.10,2013-02-21 07:37:00,
2013-02-21 02:52:00,24.0,12.0,29.99,WNW,286,4.0,-999.0,61,-99.99,,,0.00,0,weatherlink.com 1.10,2013-02-21 07:52:00,
2013-02-21 03:07:00,24.1,12.0,29.98,West,279,2.0,-999.0,60,-99.99,,,0.00,0,weatherlink.com 1.10,2013-02-21 08:07:00,
2013-02-21 03:22:00,23.9,12.0,29.98,West,271,3.0,-999.0,61,-99.99,,,0.00,0,weatherlink.com 1.10,2013-02-21 08:22:00,
2013-02-21 03:37:00,24.4,13.0,29.98,West,271,2.0,-999.0,61,-99.99,,,0.00,0,weatherlink.com 1.10,2013-02-21 08:37:00,
2013-02-21 03:52:00,24.9,13.0,29.98,WNW,290,3.0,-999.0,61,-99.99,,,0.00,0,weatherlink.com 1.10,2013-02-21 08:52:00,
2013-02-21 04:07:00,25.0,13.0,29.98,NW,313,0.0,-999.0,61,-99.99,,,0.00,0,weatherlink.com 1.10,2013-02-21 09:07:00,
2013-02-21 04:22:00,24.9,13.0,29.98,NW,304,4.0,-999.0,61,-99.99,,,0.00,0,weatherlink.com 1.10,2013-02-21 09:22:00,
2013-02-21 04:37:00,24.8,13.0,29.98,WNW,286,6.0,-999.0,62,-99.99,,,0.00,0,weatherlink.com 1.10,2013-02-21 09:37:00,
2013-02-21 04:52:00,24.8,13.0,29.99,WSW,248,5.0,-999.0,62,-99.99,,,0.00,0,weatherlink.com 1.10,2013-02-21 09:52:00,
2013-02-21 05:07:00,25.0,14.0,29.99,West,269,6.0,-999.0,62,-99.99,,,0.00,0,weatherlink.com 1.10,2013-02-21 10:07:00,
2013-02-21 05:22:00,25.3,14.0,30.00,West,261,3.0,-999.0,62,-99.99,,,0.00,0,weatherlink.com 1.10,2013-02-21 10:22:00,
2013-02-21 05:37:00,25.4,14.0,30.00,West,277,7.0,-999.0,61,-99.99,,,0.00,0,weatherlink.com 1.10,2013-02-21 10:37:00,
2013-02-21 05:52:00,25.6,14.0,30.00,West,279,7.0,-999.0,62,-99.99,,,0.00,0,weatherlink.com 1.10,2013-02-21 10:52:00,
2013-02-21 06:07:00,25.7,14.0,30.01,WNW,300,9.0,-999.0,61,-99.99,,,0.00,0,weatherlink.com 1.10,2013-02-21 11:07:00,
2013-02-21 06:22:00,25.7,14.0,30.01,NW,304,3.0,-999.0,62,-99.99,,,0.00,0,weatherlink.com 1.10,2013-02-21 11:22:00,
2013-02-21 06:37:00,25.7,14.0,30.01,WNW,290,6.0,-999.0,62,-99.99,,,0.00,0,weatherlink.com 1.10,2013-02-21 11:37:00,
2013-02-21 06:52:00,25.7,14.0,30.01,West,277,5.0,-999.0,61,-99.99,,,0.00,5,weatherlink.com 1.10,2013-02-21 11:52:00,
2013-02-21 07:06:00,25.4,14.0,30.01,West,264,3.0,-999.0,62,-99.99,,,0.00,16,weatherlink.com 1.10,2013-02-21 12:06:00,
2013-02-21 07:21:00,25.7,13.0,30.02,WNW,300,5.0,-999.0,60,-99.99,,,0.00,25,weatherlink.com 1.10,2013-02-21 12:21:00,
2013-02-21 07:36:00,26.1,13.0,30.02,NW,309,2.0,-999.0,58,-99.99,,,0.00,60,weatherlink.com 1.10,2013-02-21 12:36:00,
2013-02-21 07:52:00,26.5,13.0,30.02,West,259,7.0,-999.0,56,-99.99,,,0.00,86,weatherlink.com 1.10,2013-02-21 12:52:00,
2013-02-21 08:06:00,26.7,12.0,30.02,West,271,5.0,-999.0,55,-99.99,,,0.00,95,weatherlink.com 1.10,2013-02-21 13:06:00,
2013-02-21 08:21:00,26.7,13.0,30.02,West,277,6.0,-999.0,56,-99.99,,,0.00,65,weatherlink.com 1.10,2013-02-21 13:21:00,
2013-02-21 08:37:00,27.1,13.0,30.02,West,277,6.0,-999.0,55,-99.99,,,0.00,139,weatherlink.com 1.10,2013-02-21 13:37:00,
2013-02-21 08:52:00,28.5,13.0,30.02,NW,308,9.0,-999.0,52,-99.99,,,0.00,369,weatherlink.com 1.10,2013-02-21 13:52:00,
2013-02-21 09:07:00,29.2,13.0,30.03,West,273,7.0,-999.0,52,-99.99,,,0.00,540,weatherlink.com 1.10,2013-02-21 14:07:00,
2013-02-21 09:22:00,28.9,13.0,30.02,WNW,300,4.0,-999.0,51,-99.99,,,0.00,232,weatherlink.com 1.10,2013-02-21 14:22:00,
2013-02-21 09:37:00,28.9,13.0,30.02,WNW,284,4.0,-999.0,52,-99.99,,,0.00,213,weatherlink.com 1.10,2013-02-21 14:37:00,
2013-02-21 09:52:00,29.2,13.0,30.02,WSW,252,8.0,-999.0,51,-99.99,,,0.00,533,weatherlink.com 1.10,2013-02-21 14:52:00,
2013-02-21 10:07:00,29.9,14.0,30.02,NW,320,17.0,-999.0,51,-99.99,,,0.00,540,weatherlink.com 1.10,2013-02-21 15:07:00,
2013-02-21 10:24:00,30.5,13.0,30.02,NW,317,9.0,-999.0,49,-99.99,,,0.00,571,weatherlink.com 1.10,2013-02-21 15:24:00,
2013-02-21 10:37:00,31.4,14.0,30.02,NW,309,18.0,-999.0,48,-99.99,,,0.00,605,weatherlink.com 1.10,2013-02-21 15:37:00,
2013-02-21 10:52:00,31.4,14.0,30.02,West,275,10.0,-999.0,49,-99.99,,,0.00,621,weatherlink.com 1.10,2013-02-21 15:52:00,
2013-02-21 11:07:00,31.7,14.0,30.04,WNW,282,6.0,-999.0,49,-99.99,,,0.00,668,weatherlink.com 1.10,2013-02-21 16:07:00,
2013-02-21 11:22:00,31.7,14.0,30.03,WNW,286,8.0,-999.0,49,-99.99,,,0.00,657,weatherlink.com 1.10,2013-02-21 16:22:00,
2013-02-21 11:37:00,32.6,14.0,30.02,West,281,9.0,-999.0,47,-99.99,,,0.00,671,weatherlink.com 1.10,2013-02-21 16:37:00,
2013-02-21 11:52:00,33.2,14.0,30.01,West,263,10.0,-999.0,46,-99.99,,,0.00,671,weatherlink.com 1.10,2013-02-21 16:52:00,
2013-02-21 12:08:00,33.5,15.0,30.01,NNW,331,12.0,-999.0,46,-99.99,,,0.00,679,weatherlink.com 1.10,2013-02-21 17:08:00,
2013-02-21 12:23:00,34.1,15.0,30.00,NW,311,4.0,-999.0,46,-99.99,,,0.00,680,weatherlink.com 1.10,2013-02-21 17:23:00,
2013-02-21 12:38:00,34.8,14.0,30.00,WNW,296,8.0,-999.0,43,-99.99,,,0.00,693,weatherlink.com 1.10,2013-02-21 17:38:00,
2013-02-21 12:53:00,35.0,15.0,29.99,West,270,9.0,-999.0,44,-99.99,,,0.00,670,weatherlink.com 1.10,2013-02-21 17:53:00,
2013-02-21 13:08:00,34.9,14.0,29.98,WSW,257,8.0,-999.0,43,-99.99,,,0.00,657,weatherlink.com 1.10,2013-02-21 18:08:00,
2013-02-21 13:23:00,35.3,15.0,29.99,NW,325,13.0,-999.0,44,-99.99,,,0.00,640,weatherlink.com 1.10,2013-02-21 18:23:00,
2013-02-21 13:38:00,35.4,15.0,30.00,NNW,335,15.0,-999.0,44,-99.99,,,0.00,622,weatherlink.com 1.10,2013-02-21 18:38:00,
2013-02-21 13:53:00,35.3,15.0,30.00,NW,306,9.0,-999.0,44,-99.99,,,0.00,596,weatherlink.com 1.10,2013-02-21 18:53:00,
2013-02-21 14:08:00,35.6,16.0,30.00,WNW,296,12.0,-999.0,45,-99.99,,,0.00,571,weatherlink.com 1.10,2013-02-21 19:08:00,
2013-02-21 14:23:00,35.3,16.0,30.01,NNW,327,7.0,-999.0,45,-99.99,,,0.00,541,weatherlink.com 1.10,2013-02-21 19:23:00,
2013-02-21 14:38:00,35.6,17.0,30.01,West,279,8.0,-999.0,46,-99.99,,,0.00,510,weatherlink.com 1.10,2013-02-21 19:38:00,
2013-02-21 14:53:00,35.0,16.0,30.01,NW,315,10.0,-999.0,46,-99.99,,,0.00,473,weatherlink.com 1.10,2013-02-21 19:53:00,
2013-02-21 15:08:00,35.4,16.0,30.02,WSW,240,13.0,-999.0,46,-99.99,,,0.00,432,weatherlink.com 1.10,2013-02-21 20:08:00,
2013-02-21 15:23:00,35.4,16.0,30.02,WNW,300,6.0,-999.0,46,-99.99,,,0.00,394,weatherlink.com 1.10,2013-02-21 20:23:00,
2013-02-21 15:38:00,36.2,17.0,30.02,West,281,6.0,-999.0,46,-99.99,,,0.00,348,weatherlink.com 1.10,2013-02-21 20:38:00,
2013-02-21 15:53:00,35.6,16.0,30.03,WNW,302,7.0,-999.0,45,-99.99,,,0.00,244,weatherlink.com 1.10,2013-02-21 20:53:00,
2013-02-21 16:08:00,35.6,17.0,30.05,West,274,5.0,-999.0,46,-99.99,,,0.00,137,weatherlink.com 1.10,2013-02-21 21:08:00,
2013-02-21 16:23:00,35.2,16.0,30.05,West,277,4.0,-999.0,46,-99.99,,,0.00,114,weatherlink.com 1.10,2013-02-21 21:23:00,
2013-02-21 16:38:00,34.8,16.0,30.06,NW,323,3.0,-999.0,47,-99.99,,,0.00,67,weatherlink.com 1.10,2013-02-21 21:38:00,
2013-02-21 16:53:00,34.6,17.0,30.07,NW,323,5.0,-999.0,48,-99.99,,,0.00,33,weatherlink.com 1.10,2013-02-21 21:53:00,
2013-02-21 17:08:00,33.7,16.0,30.08,WNW,288,10.0,-999.0,48,-99.99,,,0.00,19,weatherlink.com 1.10,2013-02-21 22:08:00,
2013-02-21 17:23:00,32.7,16.0,30.09,WNW,288,12.0,-999.0,50,-99.99,,,0.00,12,weatherlink.com 1.10,2013-02-21 22:23:00,
2013-02-21 17:38:00,32.2,15.0,30.09,NNW,333,1.0,-999.0,50,-99.99,,,0.00,5,weatherlink.com 1.10,2013-02-21 22:38:00,
2013-02-21 17:53:00,31.6,15.0,30.11,NW,321,3.0,-999.0,51,-99.99,,,0.00,0,weatherlink.com 1.10,2013-02-21 22:53:00,
2013-02-21 18:09:00,31.1,15.0,30.11,NW,315,4.0,-999.0,52,-99.99,,,0.00,0,weatherlink.com 1.10,2013-02-21 23:09:00,
2013-02-21 18:23:00,30.6,15.0,30.11,NW,323,5.0,-999.0,53,-99.99,,,0.00,0,weatherlink.com 1.10,2013-02-21 23:23:00,
2013-02-21 18:38:00,30.3,15.0,30.12,NW,323,5.0,-999.0,54,-99.99,,,0.00,0,weatherlink.com 1.10,2013-02-21 23:38:00,
2013-02-21 18:54:00,29.9,15.0,30.14,NNE,17,10.0,-999.0,54,-99.99,,,0.00,0,weatherlink.com 1.10,2013-02-21 23:54:00,
2013-02-21 19:08:00,29.4,14.0,30.17,NW,315,9.0,-999.0,54,-99.99,,,0.00,0,weatherlink.com 1.10,2013-02-22 00:08:00,
2013-02-21 19:23:00,29.1,15.0,30.19,NW,304,3.0,-999.0,55,-99.99,,,0.00,0,weatherlink.com 1.10,2013-02-22 00:23:00,
2013-02-21 19:38:00,28.6,14.0,30.19,West,273,6.0,-999.0,55,-99.99,,,0.00,0,weatherlink.com 1.10,2013-02-22 00:38:00,
2013-02-21 19:53:00,28.3,14.0,30.21,WNW,298,7.0,-999.0,56,-99.99,,,0.00,0,weatherlink.com 1.10,2013-02-22 00:53:00,
2013-02-21 20:09:00,27.8,14.0,30.23,NW,314,6.0,-999.0,57,-99.99,,,0.00,0,weatherlink.com 1.10,2013-02-22 01:09:00,
2013-02-21 20:24:00,27.3,14.0,30.24,WNW,290,5.0,-999.0,58,-99.99,,,0.00,0,weatherlink.com 1.10,2013-02-22 01:24:00,
2013-02-21 20:39:00,27.0,14.0,30.25,NW,313,7.0,-999.0,59,-99.99,,,0.00,0,weatherlink.com 1.10,2013-02-22 01:39:00,
2013-02-21 20:54:00,26.7,14.0,30.25,WNW,298,5.0,-999.0,60,-99.99,,,0.00,0,weatherlink.com 1.10,2013-02-22 01:54:00,
2013-02-21 21:09:00,26.6,14.0,30.26,WNW,299,8.0,-999.0,60,-99.99,,,0.00,0,weatherlink.com 1.10,2013-02-22 02:09:00,
2013-02-21 21:24:00,26.3,14.0,30.26,NW,315,2.0,-999.0,61,-99.99,,,0.00,0,weatherlink.com 1.10,2013-02-22 02:24:00,
2013-02-21 21:39:00,26.0,14.0,30.25,WNW,292,3.0,-999.0,61,-99.99,,,0.00,0,weatherlink.com 1.10,2013-02-22 02:39:00,
2013-02-21 21:54:00,25.8,14.0,30.26,NW,312,2.0,-999.0,62,-99.99,,,0.00,0,weatherlink.com 1.10,2013-02-22 02:54:00,
2013-02-21 22:09:00,25.5,14.0,30.25,WNW,301,5.0,-999.0,62,-99.99,,,0.00,0,weatherlink.com 1.10,2013-02-22 03:09:00,
2013-02-21 22:39:00,25.2,14.0,30.26,NNW,346,4.0,-999.0,63,-99.99,,,0.00,0,weatherlink.com 1.10,2013-02-22 03:39:00,
2013-02-21 22:54:00,25.1,14.0,30.26,NW,311,1.0,-999.0,64,-99.99,,,0.00,0,weatherlink.com 1.10,2013-02-22 03:54:00,
2013-02-21 23:24:00,24.9,15.0,30.26,NNW,331,3.0,-999.0,65,-99.99,,,0.00,0,weatherlink.com 1.10,2013-02-22 04:24:00,
2013-02-21 23:54:00,25.0,15.0,30.27,WNW,298,3.0,-999.0,65,-99.99,,,0.00,0,weatherlink.com 1.10,2013-02-22 04:54:00,